Regional Weather Roundup
Issued by NWS

Home | Current Version | Previous Version | Graphics & Text | Print | Product List | Glossary On
Versions: 1 2 3 4 5 6 7 8 9 10 11 12 13 14 15 16 17 18 19 20 21 22 23 24 25 26 27 28 29 30 31 32 33 34 35 36 37 38 39 40 41 42 43 44 45 46 47 48 49 50
000
ASUS43 KLSX 200507
RWRMO

WEATHER SUMMARY FOR MISSOURI
NATIONAL WEATHER SERVICE SPRINGFIELD MO
1200 AM CDT SAT SEP 20 2014

NOTE: "FAIR" INDICATES FEW OR NO CLOUDS BELOW 12,000 FEET WITH NO
       SIGNIFICANT WEATHER AND/OR OBSTRUCTIONS TO VISIBILITY.
       CURRENT SKY AND/OR WEATHER CONDITIONS ARE NOT AVAILABLE FOR
       CHILLICOTHE AND FARMINGTON.

MOZ001>031-035>038-043-044-053-054-200600-
...NORTHERN AND WESTERN MISSOURI...

CITY           SKY/WX    TMP DP  RH WIND       PRES   REMARKS
KANSAS CTY INT CLEAR     68  66  93 S10       29.95S
KANSAS C DTWN  CLEAR     71  66  84 S8        29.94F
LEE`S SUMMIT   CLEAR     69  66  90 S8        29.96F
ST JOSEPH      PTCLDY    69  67  93 S9        29.92F
CHILLICOTHE      N/A     69  64  84 S8        29.94F
KIRKSVILLE     CLEAR     66  62  87 S12       29.95F

$$
MOZ066>068-077>081-088>096-101>105-200600-
...SOUTHWEST MISSOURI...

CITY           SKY/WX    TMP DP  RH WIND       PRES   REMARKS
SPRINGFIELD    CLEAR     68  63  84 S8        30.02S
JOPLIN         CLEAR     67  66  97 S6        30.00F

$$
MOZ032>034-039>042-045>050-055>058-069>072-200600-
...CENTRAL MISSOURI...

CITY           SKY/WX    TMP DP  RH WIND       PRES   REMARKS
COLUMBIA       CLEAR     63  61  93 S7        29.99F
JEFFERSON CITY CLEAR     62  60  93 SE5       29.99F FOG
ROLLA          CLEAR     65  61  87 S9        30.01S FOG
SEDALIA        CLEAR     67  62  84 S7        29.99S
WHITEMAN AFB   CLEAR     66  64  92 S8        29.97S
OSAGE BEACH    CLEAR     64  61  88 S5        30.01S

$$
MOZ051-052-059>065-200600-
...EAST CENTRAL MISSOURI...

CITY           SKY/WX    TMP DP  RH WIND       PRES   REMARKS
ST LOUIS INTL  PTCLDY    69  59  70 S6        30.01F
SPIRIT OF STL  CLEAR     60  58  92 CALM      30.00S FOG
ST CHARLES     CLEAR     59  58  96 CALM      30.00S FOG

$$
MOZ072>076-082>087-097>100-106>115-200600-
...SOUTH CENTRAL AND SOUTHEAST MISSOURI...

CITY           SKY/WX    TMP DP  RH WIND       PRES   REMARKS
CAPE GIRARDEAU CLEAR     59  58  96 CALM      30.03F
FARMINGTON     CLEAR     59  57  94 CALM      30.06S
POPLAR BLUFF   CLEAR     61  58  90 CALM      30.02F FOG
WEST PLAINS    CLEAR     62  59  90 CALM      30.06F

$$



USA.gov is the U.S. government's official web portal to all federal, state and local government web resources and services.